Time,TemperatureF,DewpointF,PressureIn,WindDirection,WindDirectionDegrees,WindSpeedMPH,WindSpeedGustMPH,Humidity,HourlyPrecipIn,Conditions,Clouds,dailyrainin,SoftwareType,DateUTC
2013-04-08 00:00:00,72.3,53.7,30.18,NNE,22,3.4,5.6,52,0.00,,---,0.00,VWS V14.01,2013-04-08 04:00:00,
2013-04-08 00:01:00,72.3,53.7,30.18,East,90,0.9,3.4,52,0.00,,---,0.00,VWS V14.01,2013-04-08 04:01:00,
2013-04-08 00:06:00,72.1,53.6,30.18,ENE,68,1.1,3.6,52,0.00,,---,0.00,VWS V14.01,2013-04-08 04:06:00,
2013-04-08 00:07:00,72.1,54.1,30.18,East,90,1.1,3.4,53,0.00,,---,0.00,VWS V14.01,2013-04-08 04:07:00,
2013-04-08 00:13:00,72.0,53.9,30.18,ESE,112,1.3,4.9,53,0.00,,---,0.00,VWS V14.01,2013-04-08 04:13:00,
2013-04-08 00:19:00,71.8,53.8,30.18,ESE,112,3.4,4.3,53,0.00,,---,0.00,VWS V14.01,2013-04-08 04:19:00,
2013-04-08 00:20:00,71.8,53.8,30.18,ENE,68,2.5,3.4,53,0.00,,---,0.00,VWS V14.01,2013-04-08 04:20:00,
2013-04-08 00:25:00,71.8,53.8,30.18,ENE,68,3.1,3.1,53,0.00,,---,0.00,VWS V14.01,2013-04-08 04:25:00,
2013-04-08 00:30:00,71.6,53.6,30.18,ENE,68,4.9,4.9,53,0.00,,---,0.00,VWS V14.01,2013-04-08 04:30:00,
2013-04-08 00:35:00,71.4,53.9,30.18,East,90,2.5,3.6,54,0.00,,---,0.00,VWS V14.01,2013-04-08 04:35:00,
2013-04-08 00:40:00,71.2,53.8,30.18,ESE,112,3.1,3.1,54,0.00,,---,0.00,VWS V14.01,2013-04-08 04:40:00,
2013-04-08 00:46:00,71.1,53.6,30.18,SSW,202,6.0,6.0,54,0.00,,---,0.00,VWS V14.01,2013-04-08 04:46:00,
2013-04-08 00:52:00,71.1,53.6,30.18,ENE,68,4.3,4.3,54,0.00,,---,0.00,VWS V14.01,2013-04-08 04:52:00,
2013-04-08 00:58:00,70.9,53.9,30.18,ENE,68,2.0,4.3,55,0.00,,---,0.00,VWS V14.01,2013-04-08 04:58:00,
2013-04-08 01:03:00,70.7,54.2,30.18,SSE,158,5.8,5.8,56,0.00,,---,0.00,VWS V14.01,2013-04-08 05:03:00,
2013-04-08 01:08:00,70.5,54.1,30.18,NE,45,1.1,2.9,56,0.00,,---,0.00,VWS V14.01,2013-04-08 05:08:00,
2013-04-08 01:13:00,70.5,54.1,30.18,ENE,68,2.7,2.9,56,0.00,,---,0.00,VWS V14.01,2013-04-08 05:13:00,
2013-04-08 01:18:00,70.3,53.9,30.18,ENE,68,2.9,4.0,56,0.00,,---,0.00,VWS V14.01,2013-04-08 05:18:00,
2013-04-08 01:24:00,70.3,53.9,30.18,ESE,112,3.8,4.3,56,0.00,,---,0.00,VWS V14.01,2013-04-08 05:24:00,
2013-04-08 01:30:00,70.2,54.2,30.18,ENE,68,1.6,2.5,57,0.00,,---,0.00,VWS V14.01,2013-04-08 05:30:00,
2013-04-08 01:35:00,70.2,54.2,30.18,ESE,112,1.3,1.3,57,0.00,,---,0.00,VWS V14.01,2013-04-08 05:35:00,
2013-04-08 01:41:00,70.2,54.2,30.18,ENE,68,2.2,3.6,57,0.00,,---,0.00,VWS V14.01,2013-04-08 05:41:00,
2013-04-08 01:46:00,70.0,54.1,30.18,East,90,1.6,1.6,57,0.00,,---,0.00,VWS V14.01,2013-04-08 05:46:00,
2013-04-08 01:51:00,70.0,54.1,30.18,WSW,248,0.0,2.5,57,0.00,,---,0.00,VWS V14.01,2013-04-08 05:51:00,
2013-04-08 01:57:00,69.8,53.9,30.18,East,90,1.1,2.5,57,0.00,,---,0.00,VWS V14.01,2013-04-08 05:57:00,
2013-04-08 02:02:00,69.8,53.9,30.18,ESE,112,2.2,4.0,57,0.00,,---,0.00,VWS V14.01,2013-04-08 06:02:00,
2013-04-08 02:07:00,69.8,54.4,30.18,ESE,112,0.9,0.9,58,0.00,,---,0.00,VWS V14.01,2013-04-08 06:07:00,
2013-04-08 02:13:00,69.6,54.2,30.18,ESE,112,2.7,2.7,58,0.00,,---,0.00,VWS V14.01,2013-04-08 06:13:00,
2013-04-08 02:18:00,69.6,54.2,30.18,ENE,68,1.3,1.3,58,0.00,,---,0.00,VWS V14.01,2013-04-08 06:18:00,
2013-04-08 02:23:00,69.4,54.5,30.18,ENE,68,1.1,3.6,59,0.00,,---,0.00,VWS V14.01,2013-04-08 06:23:00,
2013-04-08 02:29:00,69.4,54.5,30.18,East,90,0.0,2.5,59,0.00,,---,0.00,VWS V14.01,2013-04-08 06:29:00,
2013-04-08 02:34:00,69.4,54.5,30.15,SSE,158,1.3,2.5,59,0.00,,---,0.00,VWS V14.01,2013-04-08 06:34:00,
2013-04-08 02:40:00,69.4,54.5,30.15,East,90,2.9,2.9,59,0.00,,---,0.00,VWS V14.01,2013-04-08 06:40:00,
2013-04-08 02:46:00,69.3,54.8,30.15,NE,45,0.0,2.9,60,0.00,,---,0.00,VWS V14.01,2013-04-08 06:46:00,
2013-04-08 02:52:00,69.3,54.8,30.15,South,180,1.1,1.1,60,0.00,,---,0.00,VWS V14.01,2013-04-08 06:52:00,
2013-04-08 02:58:00,69.3,54.8,30.15,ENE,68,0.0,3.4,60,0.00,,---,0.00,VWS V14.01,2013-04-08 06:58:00,
2013-04-08 03:04:00,69.3,54.8,30.15,ENE,68,2.5,4.7,60,0.00,,---,0.00,VWS V14.01,2013-04-08 07:04:00,
2013-04-08 03:09:00,69.1,54.6,30.15,ENE,68,1.1,2.5,60,0.00,,---,0.00,VWS V14.01,2013-04-08 07:09:00,
2013-04-08 03:14:00,69.1,54.6,30.15,ENE,68,2.9,2.9,60,0.00,,---,0.00,VWS V14.01,2013-04-08 07:14:00,
2013-04-08 03:19:00,69.1,54.6,30.15,ENE,68,2.9,4.9,60,0.00,,---,0.00,VWS V14.01,2013-04-08 07:19:00,
2013-04-08 03:24:00,69.1,54.2,30.15,NE,45,3.1,6.0,59,0.00,,---,0.00,VWS V14.01,2013-04-08 07:24:00,
2013-04-08 03:29:00,69.1,54.2,30.15,East,90,3.8,3.8,59,0.00,,---,0.00,VWS V14.01,2013-04-08 07:29:00,
2013-04-08 03:35:00,69.1,54.2,30.15,SE,135,1.1,1.1,59,0.00,,---,0.00,VWS V14.01,2013-04-08 07:35:00,
2013-04-08 03:41:00,68.9,54.0,30.15,SE,135,1.3,1.6,59,0.00,,---,0.00,VWS V14.01,2013-04-08 07:41:00,
2013-04-08 03:47:00,68.7,54.3,30.15,SSE,158,2.9,3.4,60,0.00,,---,0.00,VWS V14.01,2013-04-08 07:47:00,
2013-04-08 03:52:00,68.5,54.1,30.15,East,90,0.0,1.1,60,0.00,,---,0.00,VWS V14.01,2013-04-08 07:52:00,
2013-04-08 03:58:00,68.5,54.1,30.15,ESE,112,1.1,1.6,60,0.00,,---,0.00,VWS V14.01,2013-04-08 07:58:00,
2013-04-08 04:04:00,68.4,54.0,30.15,East,90,0.0,2.9,60,0.00,,---,0.00,VWS V14.01,2013-04-08 08:04:00,
2013-04-08 04:10:00,68.2,54.2,30.15,ENE,68,1.6,2.9,61,0.00,,---,0.00,VWS V14.01,2013-04-08 08:10:00,
2013-04-08 04:15:00,68.0,54.1,30.15,East,90,1.3,1.3,61,0.00,,---,0.00,VWS V14.01,2013-04-08 08:15:00,
2013-04-08 04:20:00,67.8,54.3,30.12,East,90,1.1,1.3,62,0.00,,---,0.00,VWS V14.01,2013-04-08 08:20:00,
2013-04-08 04:27:00,67.6,54.2,30.12,NE,45,0.0,0.9,62,0.00,,---,0.00,VWS V14.01,2013-04-08 08:27:00,
2013-04-08 04:32:00,67.6,54.2,30.12,East,90,2.2,3.4,62,0.00,,---,0.00,VWS V14.01,2013-04-08 08:32:00,
2013-04-08 04:38:00,67.5,54.4,30.12,East,90,0.0,0.0,63,0.00,,---,0.00,VWS V14.01,2013-04-08 08:38:00,
2013-04-08 04:43:00,67.3,54.3,30.12,East,90,1.6,2.0,63,0.00,,---,0.00,VWS V14.01,2013-04-08 08:43:00,
2013-04-08 04:50:00,67.1,54.1,30.12,SE,135,2.0,2.0,63,0.00,,---,0.00,VWS V14.01,2013-04-08 08:50:00,
2013-04-08 04:55:00,67.1,54.1,30.12,SE,135,1.1,2.0,63,0.00,,---,0.00,VWS V14.01,2013-04-08 08:55:00,
2013-04-08 05:01:00,66.9,54.4,30.12,NNE,22,0.0,1.3,64,0.00,,---,0.00,VWS V14.01,2013-04-08 09:01:00,
2013-04-08 05:06:00,66.9,54.4,30.12,East,90,2.2,2.2,64,0.00,,---,0.00,VWS V14.01,2013-04-08 09:06:00,
2013-04-08 05:11:00,66.7,54.2,30.12,East,90,0.9,2.2,64,0.00,,---,0.00,VWS V14.01,2013-04-08 09:11:00,
2013-04-08 05:16:00,66.6,54.4,30.12,ESE,112,2.0,2.0,65,0.00,,---,0.00,VWS V14.01,2013-04-08 09:16:00,
2013-04-08 05:21:00,66.6,54.4,30.12,ENE,68,2.2,2.5,65,0.00,,---,0.00,VWS V14.01,2013-04-08 09:21:00,
2013-04-08 05:27:00,66.6,54.4,30.12,NE,45,1.3,1.6,65,0.00,,---,0.00,VWS V14.01,2013-04-08 09:27:00,
2013-04-08 05:32:00,66.6,54.4,30.12,East,90,0.0,1.3,65,0.00,,---,0.00,VWS V14.01,2013-04-08 09:32:00,
2013-04-08 05:38:00,66.4,54.7,30.12,East,90,0.0,0.0,66,0.00,,---,0.00,VWS V14.01,2013-04-08 09:38:00,
2013-04-08 05:43:00,66.2,54.5,30.12,East,90,0.0,1.6,66,0.00,,---,0.00,VWS V14.01,2013-04-08 09:43:00,
2013-04-08 05:49:00,66.2,54.5,30.15,ESE,112,0.0,0.0,66,0.00,,---,0.00,VWS V14.01,2013-04-08 09:49:00,
2013-04-08 05:54:00,66.2,54.5,30.15,SE,135,1.6,1.6,66,0.00,,---,0.00,VWS V14.01,2013-04-08 09:54:00,
2013-04-08 06:00:00,66.0,54.8,30.15,East,90,1.6,1.6,67,0.00,,---,0.00,VWS V14.01,2013-04-08 10:00:00,
2013-04-08 06:05:00,65.8,54.6,30.15,ESE,112,2.5,2.5,67,0.00,,---,0.00,VWS V14.01,2013-04-08 10:05:00,
2013-04-08 06:11:00,65.8,54.6,30.15,East,90,0.0,1.6,67,0.00,,---,0.00,VWS V14.01,2013-04-08 10:11:00,
2013-04-08 06:17:00,65.8,55.0,30.15,ENE,68,0.9,2.0,68,0.00,,---,0.00,VWS V14.01,2013-04-08 10:17:00,
2013-04-08 06:23:00,65.8,55.0,30.15,ENE,68,1.1,2.2,68,0.00,,---,0.00,VWS V14.01,2013-04-08 10:23:00,
2013-04-08 06:28:00,65.8,55.0,30.15,ENE,68,2.5,2.9,68,0.00,,---,0.00,VWS V14.01,2013-04-08 10:28:00,
2013-04-08 06:35:00,65.8,55.0,30.15,ESE,112,1.1,1.6,68,0.00,,---,0.00,VWS V14.01,2013-04-08 10:35:00,
2013-04-08 06:40:00,65.8,55.0,30.15,East,90,1.1,3.4,68,0.00,,---,0.00,VWS V14.01,2013-04-08 10:40:00,
2013-04-08 06:46:00,65.7,54.8,30.15,ENE,68,2.2,4.3,68,0.00,,---,0.00,VWS V14.01,2013-04-08 10:46:00,
2013-04-08 06:52:00,65.8,55.4,30.15,East,90,2.2,2.5,69,0.00,,---,0.00,VWS V14.01,2013-04-08 10:52:00,
2013-04-08 06:57:00,65.8,55.4,30.15,East,90,3.1,3.1,69,0.00,,---,0.00,VWS V14.01,2013-04-08 10:57:00,
2013-04-08 07:03:00,65.8,55.4,30.15,ENE,68,0.0,1.3,69,0.00,,---,0.00,VWS V14.01,2013-04-08 11:03:00,
2013-04-08 07:08:00,65.8,55.4,30.15,East,90,2.7,3.4,69,0.00,,---,0.00,VWS V14.01,2013-04-08 11:08:00,
2013-04-08 07:13:00,65.8,55.4,30.15,East,90,2.5,2.5,69,0.00,,---,0.00,VWS V14.01,2013-04-08 11:13:00,
2013-04-08 07:19:00,65.8,55.4,30.15,East,90,1.1,2.9,69,0.00,,---,0.00,VWS V14.01,2013-04-08 11:19:00,
2013-04-08 07:24:00,65.7,55.2,30.15,East,90,1.1,2.9,69,0.00,,---,0.00,VWS V14.01,2013-04-08 11:24:00,
2013-04-08 07:29:00,65.7,55.2,30.15,East,90,2.7,3.4,69,0.00,,---,0.00,VWS V14.01,2013-04-08 11:29:00,
2013-04-08 07:35:00,65.7,55.2,30.15,NE,45,2.0,2.0,69,0.00,,---,0.00,VWS V14.01,2013-04-08 11:35:00,
2013-04-08 07:41:00,65.7,55.2,30.15,East,90,2.7,3.6,69,0.00,,---,0.00,VWS V14.01,2013-04-08 11:41:00,
2013-04-08 07:47:00,65.7,55.6,30.18,ESE,112,2.9,2.9,70,0.00,,---,0.00,VWS V14.01,2013-04-08 11:47:00,
2013-04-08 07:52:00,65.8,55.8,30.18,ENE,68,2.9,2.9,70,0.00,,---,0.00,VWS V14.01,2013-04-08 11:52:00,
2013-04-08 07:58:00,65.8,55.8,30.18,ENE,68,2.0,2.9,70,0.00,,---,0.00,VWS V14.01,2013-04-08 11:58:00,
2013-04-08 08:04:00,65.8,55.8,30.18,ENE,68,2.5,2.5,70,0.00,,---,0.00,VWS V14.01,2013-04-08 12:04:00,
2013-04-08 08:09:00,65.8,55.8,30.18,NNE,22,1.6,2.9,70,0.00,,---,0.00,VWS V14.01,2013-04-08 12:09:00,
2013-04-08 08:14:00,66.0,56.0,30.18,ESE,112,1.6,2.7,70,0.00,,---,0.00,VWS V14.01,2013-04-08 12:14:00,
2013-04-08 08:20:00,66.2,56.1,30.18,NNE,22,1.3,2.5,70,0.00,,---,0.00,VWS V14.01,2013-04-08 12:20:00,
2013-04-08 08:25:00,66.4,56.3,30.18,NNW,338,2.5,2.5,70,0.00,,---,0.00,VWS V14.01,2013-04-08 12:25:00,
2013-04-08 08:31:00,66.6,56.1,30.18,SSE,158,2.5,2.5,69,0.00,,---,0.00,VWS V14.01,2013-04-08 12:31:00,
2013-04-08 08:38:00,66.9,56.8,30.18,ENE,68,3.1,5.6,70,0.00,,---,0.00,VWS V14.01,2013-04-08 12:38:00,
2013-04-08 08:45:00,67.5,57.0,30.18,SE,135,0.9,2.9,69,0.00,,---,0.00,VWS V14.01,2013-04-08 12:45:00,
2013-04-08 08:52:00,68.0,57.5,30.18,SSE,158,1.3,2.2,69,0.00,,---,0.00,VWS V14.01,2013-04-08 12:52:00,
2013-04-08 08:58:00,68.7,57.7,30.18,East,90,2.9,5.8,68,0.00,,---,0.00,VWS V14.01,2013-04-08 12:58:00,
2013-04-08 09:04:00,69.3,57.8,30.18,SSE,158,1.6,4.7,67,0.00,,---,0.00,VWS V14.01,2013-04-08 13:04:00,
2013-04-08 09:09:00,69.6,58.2,30.18,East,90,4.9,4.9,67,0.00,,---,0.00,VWS V14.01,2013-04-08 13:09:00,
2013-04-08 09:14:00,70.0,57.7,30.18,East,90,3.8,3.8,65,0.00,,---,0.00,VWS V14.01,2013-04-08 13:14:00,
2013-04-08 09:20:00,70.5,58.2,30.18,ENE,68,3.8,3.8,65,0.00,,---,0.00,VWS V14.01,2013-04-08 13:20:00,
2013-04-08 09:26:00,71.2,58.5,30.18,NNE,22,4.9,4.9,64,0.00,,---,0.00,VWS V14.01,2013-04-08 13:26:00,
2013-04-08 09:31:00,71.6,58.3,30.18,SE,135,5.6,5.6,63,0.00,,---,0.00,VWS V14.01,2013-04-08 13:31:00,
2013-04-08 09:36:00,71.8,58.1,30.18,ESE,112,0.0,2.7,62,0.00,,---,0.00,VWS V14.01,2013-04-08 13:36:00,
2013-04-08 09:42:00,71.8,58.1,30.18,East,90,3.1,3.1,62,0.00,,---,0.00,VWS V14.01,2013-04-08 13:42:00,
2013-04-08 09:47:00,71.8,58.1,30.18,SSE,158,2.7,3.8,62,0.00,,---,0.00,VWS V14.01,2013-04-08 13:47:00,
2013-04-08 09:53:00,71.8,58.1,30.18,SSE,158,2.7,4.7,62,0.00,,---,0.00,VWS V14.01,2013-04-08 13:53:00,
2013-04-08 09:58:00,71.8,58.1,30.18,ESE,112,6.3,6.3,62,0.00,,---,0.00,VWS V14.01,2013-04-08 13:58:00,
2013-04-08 10:05:00,75.0,57.3,30.18,ENE,68,1.6,3.1,54,0.00,,---,0.00,VWS V14.01,2013-04-08 14:05:00,
2013-04-08 10:10:00,75.7,56.3,30.18,ESE,112,5.8,5.8,51,0.00,,---,0.00,VWS V14.01,2013-04-08 14:10:00,
2013-04-08 10:16:00,76.3,56.3,30.18,East,90,2.5,4.7,50,0.00,,---,0.00,VWS V14.01,2013-04-08 14:16:00,
2013-04-08 10:21:00,76.8,55.1,30.18,SE,135,3.8,8.5,47,0.00,,---,0.00,VWS V14.01,2013-04-08 14:21:00,
2013-04-08 10:26:00,77.2,54.8,30.18,NNE,22,3.4,3.4,46,0.00,,---,0.00,VWS V14.01,2013-04-08 14:26:00,
2013-04-08 10:31:00,77.5,54.5,30.21,SSE,158,4.0,4.0,45,0.00,,---,0.00,VWS V14.01,2013-04-08 14:31:00,
2013-04-08 10:37:00,78.1,55.0,30.21,NNE,22,7.4,7.4,45,0.00,,---,0.00,VWS V14.01,2013-04-08 14:37:00,
2013-04-08 10:43:00,78.6,54.3,30.21,ENE,68,6.3,6.3,43,0.00,,---,0.00,VWS V14.01,2013-04-08 14:43:00,
2013-04-08 10:48:00,79.0,54.6,30.21,SE,135,2.9,2.9,43,0.00,,---,0.00,VWS V14.01,2013-04-08 14:48:00,
2013-04-08 10:54:00,79.5,54.4,30.21,SSE,158,5.6,5.6,42,0.00,,---,0.00,VWS V14.01,2013-04-08 14:54:00,
2013-04-08 10:59:00,79.7,53.3,30.21,East,90,3.1,4.9,40,0.00,,---,0.00,VWS V14.01,2013-04-08 14:59:00,
2013-04-08 11:05:00,80.2,53.8,30.21,NE,45,0.9,2.0,40,0.00,,---,0.00,VWS V14.01,2013-04-08 15:05:00,
2013-04-08 11:12:00,81.1,54.5,30.21,East,90,1.1,1.1,40,0.00,,---,0.00,VWS V14.01,2013-04-08 15:12:00,
2013-04-08 11:17:00,81.3,54.0,30.21,East,90,1.1,1.1,39,0.00,,---,0.00,VWS V14.01,2013-04-08 15:17:00,
2013-04-08 11:23:00,81.3,54.0,30.21,East,90,1.1,1.1,39,0.00,,---,0.00,VWS V14.01,2013-04-08 15:23:00,
2013-04-08 11:29:00,81.9,51.5,30.21,East,90,3.8,4.3,35,0.00,,---,0.00,VWS V14.01,2013-04-08 15:29:00,
2013-04-08 11:35:00,82.4,52.8,30.24,SE,135,1.6,3.8,36,0.00,,---,0.00,VWS V14.01,2013-04-08 15:35:00,
2013-04-08 11:40:00,82.6,52.2,30.24,SSE,158,3.6,3.6,35,0.00,,---,0.00,VWS V14.01,2013-04-08 15:40:00,
2013-04-08 11:46:00,83.1,51.9,30.21,East,90,4.5,6.3,34,0.00,,---,0.00,VWS V14.01,2013-04-08 15:46:00,
2013-04-08 11:52:00,83.3,51.2,30.21,ENE,68,6.3,6.3,33,0.00,,---,0.00,VWS V14.01,2013-04-08 15:52:00,
2013-04-08 11:58:00,83.5,50.5,30.21,NE,45,7.8,7.8,32,0.00,,---,0.00,VWS V14.01,2013-04-08 15:58:00,
2013-04-08 12:04:00,83.8,50.9,30.21,NE,45,4.9,6.0,32,0.00,,---,0.00,VWS V14.01,2013-04-08 16:04:00,
2013-04-08 12:10:00,84.2,50.3,30.21,NE,45,2.7,3.4,31,0.00,,---,0.00,VWS V14.01,2013-04-08 16:10:00,
2013-04-08 12:15:00,84.6,50.6,30.21,East,90,2.0,2.0,31,0.00,,---,0.00,VWS V14.01,2013-04-08 16:15:00,
2013-04-08 12:20:00,84.9,50.9,30.21,SSE,158,2.2,2.2,31,0.00,,---,0.00,VWS V14.01,2013-04-08 16:20:00,
2013-04-08 12:26:00,85.3,51.2,30.21,NNE,22,5.6,8.1,31,0.00,,---,0.00,VWS V14.01,2013-04-08 16:26:00,
2013-04-08 12:32:00,85.5,50.5,30.21,WSW,248,1.6,6.0,30,0.00,,---,0.00,VWS V14.01,2013-04-08 16:32:00,
2013-04-08 12:37:00,85.8,50.8,30.21,NE,45,2.5,5.4,30,0.00,,---,0.00,VWS V14.01,2013-04-08 16:37:00,
2013-04-08 12:42:00,86.2,51.1,30.21,ENE,68,3.4,3.4,30,0.00,,---,0.00,VWS V14.01,2013-04-08 16:42:00,
2013-04-08 12:47:00,86.7,51.6,30.21,ENE,68,2.2,4.9,30,0.00,,---,0.00,VWS V14.01,2013-04-08 16:47:00,
2013-04-08 12:53:00,87.1,51.0,30.21,NE,45,5.6,5.6,29,0.00,,---,0.00,VWS V14.01,2013-04-08 16:53:00,
2013-04-08 12:59:00,87.3,51.2,30.21,ENE,68,3.1,6.0,29,0.00,,---,0.00,VWS V14.01,2013-04-08 16:59:00,
2013-04-08 13:05:00,87.1,50.1,30.18,SSW,202,2.5,7.2,28,0.00,,---,0.00,VWS V14.01,2013-04-08 17:05:00,
2013-04-08 13:10:00,87.6,50.5,30.18,East,90,1.3,5.6,28,0.00,,---,0.00,VWS V14.01,2013-04-08 17:10:00,
2013-04-08 13:16:00,87.8,50.7,30.18,East,90,4.7,4.7,28,0.00,,---,0.00,VWS V14.01,2013-04-08 17:16:00,
2013-04-08 13:22:00,87.8,50.7,30.18,ENE,68,3.6,6.3,28,0.00,,---,0.00,VWS V14.01,2013-04-08 17:22:00,
2013-04-08 13:28:00,88.2,51.0,30.18,SW,225,2.7,3.4,28,0.00,,---,0.00,VWS V14.01,2013-04-08 17:28:00,
2013-04-08 13:33:00,88.2,51.0,30.18,SE,135,3.4,4.3,28,0.00,,---,0.00,VWS V14.01,2013-04-08 17:33:00,
2013-04-08 13:40:00,88.2,51.0,30.18,ENE,68,2.0,2.9,28,0.00,,---,0.00,VWS V14.01,2013-04-08 17:40:00,
2013-04-08 13:46:00,88.2,50.0,30.18,ENE,68,4.0,4.0,27,0.00,,---,0.00,VWS V14.01,2013-04-08 17:46:00,
2013-04-08 13:51:00,88.0,50.8,30.18,East,90,2.7,2.7,28,0.00,,---,0.00,VWS V14.01,2013-04-08 17:51:00,
2013-04-08 13:58:00,87.6,50.5,30.18,North,0,3.4,3.4,28,0.00,,---,0.00,VWS V14.01,2013-04-08 17:58:00,
2013-04-08 14:04:00,88.2,49.0,30.18,ESE,112,4.3,6.0,26,0.00,,---,0.00,VWS V14.01,2013-04-08 18:04:00,
2013-04-08 14:09:00,88.3,51.1,30.18,East,90,4.3,4.3,28,0.00,,---,0.00,VWS V14.01,2013-04-08 18:09:00,
2013-04-08 14:15:00,88.7,50.5,30.18,ENE,68,6.0,6.0,27,0.00,,---,0.00,VWS V14.01,2013-04-08 18:15:00,
2013-04-08 14:20:00,89.1,50.8,30.15,SSW,202,2.7,5.8,27,0.00,,---,0.00,VWS V14.01,2013-04-08 18:20:00,
2013-04-08 14:26:00,88.3,51.1,30.15,NW,315,4.9,4.9,28,0.00,,---,0.00,VWS V14.01,2013-04-08 18:26:00,
2013-04-08 14:32:00,87.8,51.6,30.18,NNW,338,2.2,2.2,29,0.00,,---,0.00,VWS V14.01,2013-04-08 18:32:00,
2013-04-08 14:38:00,88.0,51.8,30.18,NW,315,3.6,4.0,29,0.00,,---,0.00,VWS V14.01,2013-04-08 18:38:00,
2013-04-08 14:43:00,88.2,52.8,30.18,WSW,248,2.5,3.4,30,0.00,,---,0.00,VWS V14.01,2013-04-08 18:43:00,
2013-04-08 14:49:00,87.6,52.4,30.15,SSW,202,1.3,2.9,30,0.00,,---,0.00,VWS V14.01,2013-04-08 18:49:00,
2013-04-08 14:55:00,87.1,51.0,30.15,WSW,248,2.7,2.7,29,0.00,,---,0.00,VWS V14.01,2013-04-08 18:55:00,
2013-04-08 15:01:00,86.5,50.5,30.18,WSW,248,2.7,2.7,29,0.00,,---,0.00,VWS V14.01,2013-04-08 19:01:00,
2013-04-08 15:08:00,86.9,51.8,30.18,NNE,22,2.5,3.6,30,0.00,,---,0.00,VWS V14.01,2013-04-08 19:08:00,
2013-04-08 15:13:00,86.7,52.5,30.18,NNW,338,2.7,2.9,31,0.00,,---,0.00,VWS V14.01,2013-04-08 19:13:00,
2013-04-08 15:19:00,85.8,51.7,30.15,South,180,1.6,3.4,31,0.00,,---,0.00,VWS V14.01,2013-04-08 19:19:00,
2013-04-08 15:25:00,84.9,50.9,30.15,SSW,202,6.0,6.0,31,0.00,,---,0.00,VWS V14.01,2013-04-08 19:25:00,
2013-04-08 15:30:00,84.7,51.6,30.15,SSW,202,3.4,4.0,32,0.00,,---,0.00,VWS V14.01,2013-04-08 19:30:00,
2013-04-08 15:36:00,84.4,51.3,30.15,South,180,3.4,3.8,32,0.00,,---,0.00,VWS V14.01,2013-04-08 19:36:00,
2013-04-08 15:42:00,83.8,51.7,30.15,South,180,4.3,4.3,33,0.00,,---,0.00,VWS V14.01,2013-04-08 19:42:00,
2013-04-08 15:47:00,83.5,51.4,30.15,SSW,202,2.7,2.7,33,0.00,,---,0.00,VWS V14.01,2013-04-08 19:47:00,
2013-04-08 15:53:00,82.9,50.9,30.15,WSW,248,4.3,4.3,33,0.00,,---,0.00,VWS V14.01,2013-04-08 19:53:00,
2013-04-08 15:59:00,83.3,51.2,30.15,WNW,292,3.6,3.6,33,0.00,,---,0.00,VWS V14.01,2013-04-08 19:59:00,
2013-04-08 16:04:00,83.7,52.3,30.15,South,180,2.5,2.5,34,0.00,,---,0.00,VWS V14.01,2013-04-08 20:04:00,
2013-04-08 16:09:00,83.8,52.5,30.15,NW,315,2.7,2.9,34,0.00,,---,0.00,VWS V14.01,2013-04-08 20:09:00,
2013-04-08 16:14:00,83.8,52.5,30.15,NW,315,4.7,6.0,34,0.00,,---,0.00,VWS V14.01,2013-04-08 20:14:00,
2013-04-08 16:19:00,83.8,52.5,30.15,South,180,2.5,4.3,34,0.00,,---,0.00,VWS V14.01,2013-04-08 20:19:00,
2013-04-08 16:24:00,83.7,52.3,30.15,SSW,202,2.5,2.5,34,0.00,,---,0.00,VWS V14.01,2013-04-08 20:24:00,
2013-04-08 16:29:00,83.7,52.3,30.15,West,270,1.6,5.8,34,0.00,,---,0.00,VWS V14.01,2013-04-08 20:29:00,
2013-04-08 16:34:00,83.7,53.1,30.15,NW,315,4.0,4.0,35,0.00,,---,0.00,VWS V14.01,2013-04-08 20:34:00,
2013-04-08 16:40:00,83.5,52.2,30.15,NNW,338,3.8,4.3,34,0.00,,---,0.00,VWS V14.01,2013-04-08 20:40:00,
2013-04-08 16:45:00,83.5,52.2,30.15,SW,225,2.7,2.9,34,0.00,,---,0.00,VWS V14.01,2013-04-08 20:45:00,
2013-04-08 16:51:00,84.0,51.8,30.15,WSW,248,1.6,4.0,33,0.00,,---,0.00,VWS V14.01,2013-04-08 20:51:00,
2013-04-08 16:57:00,84.2,51.2,30.15,WNW,292,1.1,1.1,32,0.00,,---,0.00,VWS V14.01,2013-04-08 20:57:00,
2013-04-08 17:02:00,84.2,51.2,30.12,SW,225,1.3,2.5,32,0.00,,---,0.00,VWS V14.01,2013-04-08 21:02:00,
2013-04-08 17:07:00,84.2,51.2,30.12,SW,225,2.2,2.5,32,0.00,,---,0.00,VWS V14.01,2013-04-08 21:07:00,
2013-04-08 17:13:00,83.8,50.9,30.12,SSW,202,1.6,4.3,32,0.00,,---,0.00,VWS V14.01,2013-04-08 21:13:00,
2013-04-08 17:19:00,83.5,50.5,30.15,WNW,292,3.1,3.1,32,0.00,,---,0.00,VWS V14.01,2013-04-08 21:19:00,
2013-04-08 17:25:00,83.5,50.5,30.15,WNW,292,3.1,3.1,32,0.00,,---,0.00,VWS V14.01,2013-04-08 21:25:00,
2013-04-08 17:31:00,83.5,50.5,30.15,WNW,292,3.1,3.1,32,0.00,,---,0.00,VWS V14.01,2013-04-08 21:31:00,
2013-04-08 17:36:00,83.5,50.5,30.15,WNW,292,3.1,3.1,32,0.00,,---,0.00,VWS V14.01,2013-04-08 21:36:00,
2013-04-08 17:41:00,83.5,50.5,30.15,WNW,292,3.1,3.1,32,0.00,,---,0.00,VWS V14.01,2013-04-08 21:41:00,
2013-04-08 17:46:00,83.5,50.5,30.15,WNW,292,3.1,3.1,32,0.00,,---,0.00,VWS V14.01,2013-04-08 21:46:00,
2013-04-08 17:53:00,81.9,52.3,30.15,SW,225,2.5,2.5,36,0.00,,---,0.00,VWS V14.01,2013-04-08 21:53:00,
2013-04-08 17:59:00,81.9,52.3,30.15,SW,225,2.5,2.5,36,0.00,,---,0.00,VWS V14.01,2013-04-08 21:59:00,
2013-04-08 18:04:00,81.9,52.3,30.15,SW,225,2.5,2.5,36,0.00,,---,0.00,VWS V14.01,2013-04-08 22:04:00,
2013-04-08 18:10:00,81.9,52.3,30.15,SW,225,2.5,2.5,36,0.00,,---,0.00,VWS V14.01,2013-04-08 22:10:00,
2013-04-08 18:15:00,81.9,52.3,30.15,SW,225,2.5,2.5,36,0.00,,---,0.00,VWS V14.01,2013-04-08 22:15:00,
2013-04-08 18:20:00,80.6,52.7,30.15,SSW,202,2.0,2.7,38,0.00,,---,0.00,VWS V14.01,2013-04-08 22:20:00,
2013-04-08 18:25:00,80.2,53.1,30.15,South,180,3.4,3.4,39,0.00,,---,0.00,VWS V14.01,2013-04-08 22:25:00,
2013-04-08 18:30:00,80.1,52.9,30.15,SW,225,2.9,2.9,39,0.00,,---,0.00,VWS V14.01,2013-04-08 22:30:00,
2013-04-08 18:35:00,79.7,53.3,30.15,SSW,202,4.3,4.3,40,0.00,,---,0.00,VWS V14.01,2013-04-08 22:35:00,
2013-04-08 18:40:00,79.3,53.0,30.15,SSW,202,0.9,3.4,40,0.00,,---,0.00,VWS V14.01,2013-04-08 22:40:00,
2013-04-08 18:46:00,79.2,52.8,30.15,NNE,22,2.5,2.5,40,0.00,,---,0.00,VWS V14.01,2013-04-08 22:46:00,
2013-04-08 18:51:00,79.3,53.6,30.15,WNW,292,3.8,3.8,41,0.00,,---,0.00,VWS V14.01,2013-04-08 22:51:00,
2013-04-08 18:57:00,79.2,53.5,30.15,SW,225,2.5,2.5,41,0.00,,---,0.00,VWS V14.01,2013-04-08 22:57:00,
2013-04-08 19:02:00,78.8,53.1,30.15,SSE,158,0.0,4.9,41,0.00,,---,0.00,VWS V14.01,2013-04-08 23:02:00,
2013-04-08 19:07:00,78.3,52.7,30.15,SW,225,2.9,2.9,41,0.00,,---,0.00,VWS V14.01,2013-04-08 23:07:00,
2013-04-08 19:12:00,77.9,52.3,30.15,SW,225,2.5,2.5,41,0.00,,---,0.00,VWS V14.01,2013-04-08 23:12:00,
2013-04-08 19:17:00,77.5,52.7,30.15,SSW,202,0.9,0.9,42,0.00,,---,0.00,VWS V14.01,2013-04-08 23:17:00,
2013-04-08 19:23:00,77.4,52.5,30.15,SSW,202,0.0,2.5,42,0.00,,---,0.00,VWS V14.01,2013-04-08 23:23:00,
2013-04-08 19:29:00,77.0,52.2,30.15,SSW,202,2.0,2.0,42,0.00,,---,0.00,VWS V14.01,2013-04-08 23:29:00,
2013-04-08 19:34:00,76.6,52.5,30.15,West,270,0.0,0.0,43,0.00,,---,0.00,VWS V14.01,2013-04-08 23:34:00,
2013-04-08 19:39:00,76.3,52.8,30.15,West,270,0.0,0.9,44,0.00,,---,0.00,VWS V14.01,2013-04-08 23:39:00,
2013-04-08 19:44:00,76.1,52.6,30.15,SSW,202,1.1,1.1,44,0.00,,---,0.00,VWS V14.01,2013-04-08 23:44:00,
2013-04-08 19:49:00,75.9,53.1,30.15,West,270,0.0,0.0,45,0.00,,---,0.00,VWS V14.01,2013-04-08 23:49:00,
2013-04-08 19:54:00,75.9,53.1,30.15,West,270,0.0,0.0,45,0.00,,---,0.00,VWS V14.01,2013-04-08 23:54:00,
2013-04-08 19:59:00,75.9,53.1,30.15,West,270,0.0,0.0,45,0.00,,---,0.00,VWS V14.01,2013-04-08 23:59:00,
2013-04-08 20:04:00,75.9,53.1,30.15,West,270,0.0,0.0,45,0.00,,---,0.00,VWS V14.01,2013-04-09 00:04:00,
2013-04-08 20:09:00,74.8,53.3,30.15,WSW,248,0.0,0.0,47,0.00,,---,0.00,VWS V14.01,2013-04-09 00:09:00,
2013-04-08 20:15:00,74.7,53.1,30.15,NW,315,0.0,1.3,47,0.00,,---,0.00,VWS V14.01,2013-04-09 00:15:00,
2013-04-08 20:20:00,74.5,53.0,30.15,North,0,0.0,0.0,47,0.00,,---,0.00,VWS V14.01,2013-04-09 00:20:00,
2013-04-08 20:25:00,74.3,53.4,30.15,South,180,0.0,0.0,48,0.00,,---,0.00,VWS V14.01,2013-04-09 00:25:00,
2013-04-08 20:30:00,74.1,53.2,30.15,NW,315,0.0,0.0,48,0.00,,---,0.00,VWS V14.01,2013-04-09 00:30:00,
2013-04-08 20:35:00,73.9,53.6,30.15,NE,45,1.1,2.2,49,0.00,,---,0.00,VWS V14.01,2013-04-09 00:35:00,
2013-04-08 20:41:00,73.8,53.4,30.15,NNW,338,2.0,3.1,49,0.00,,---,0.00,VWS V14.01,2013-04-09 00:41:00,
2013-04-08 20:46:00,73.6,53.8,30.18,North,0,0.0,0.9,50,0.00,,---,0.00,VWS V14.01,2013-04-09 00:46:00,
2013-04-08 20:51:00,73.8,54.0,30.18,NNE,22,0.0,0.0,50,0.00,,---,0.00,VWS V14.01,2013-04-09 00:51:00,
2013-04-08 20:57:00,73.6,53.8,30.18,NNE,22,0.0,0.0,50,0.00,,---,0.00,VWS V14.01,2013-04-09 00:57:00,
2013-04-08 21:02:00,73.4,54.2,30.15,NE,45,0.0,0.0,51,0.00,,---,0.00,VWS V14.01,2013-04-09 01:02:00,
2013-04-08 21:07:00,73.2,54.6,30.15,North,0,1.1,1.1,52,0.00,,---,0.00,VWS V14.01,2013-04-09 01:07:00,
2013-04-08 21:12:00,73.2,54.6,30.15,North,0,1.1,1.1,52,0.00,,---,0.00,VWS V14.01,2013-04-09 01:12:00,
2013-04-08 21:17:00,73.2,54.6,30.18,North,0,1.1,1.1,52,0.00,,---,0.00,VWS V14.01,2013-04-09 01:17:00,
2013-04-08 21:23:00,72.7,54.6,30.18,North,0,1.1,1.1,53,0.00,,---,0.00,VWS V14.01,2013-04-09 01:23:00,
2013-04-08 21:29:00,72.5,54.4,30.18,North,0,1.1,1.1,53,0.00,,---,0.00,VWS V14.01,2013-04-09 01:29:00,
2013-04-08 21:34:00,72.3,54.8,30.18,SSE,158,0.0,0.0,54,0.00,,---,0.00,VWS V14.01,2013-04-09 01:34:00,
2013-04-08 21:40:00,72.0,54.9,30.18,ENE,68,0.0,0.0,55,0.00,,---,0.00,VWS V14.01,2013-04-09 01:40:00,
2013-04-08 21:45:00,71.8,54.8,30.18,ENE,68,0.0,0.0,55,0.00,,---,0.00,VWS V14.01,2013-04-09 01:45:00,
2013-04-08 21:51:00,71.6,54.6,30.18,NNW,338,0.0,0.0,55,0.00,,---,0.00,VWS V14.01,2013-04-09 01:51:00,
2013-04-08 21:56:00,71.6,55.1,30.18,ENE,68,0.0,0.0,56,0.00,,---,0.00,VWS V14.01,2013-04-09 01:56:00,
2013-04-08 22:01:00,71.4,54.9,30.21,East,90,0.0,0.0,56,0.00,,---,0.00,VWS V14.01,2013-04-09 02:01:00,
2013-04-08 22:07:00,71.2,55.2,30.21,SE,135,0.0,0.0,57,0.00,,---,0.00,VWS V14.01,2013-04-09 02:07:00,
2013-04-08 22:12:00,71.1,55.1,30.21,NNW,338,0.0,0.0,57,0.00,,---,0.00,VWS V14.01,2013-04-09 02:12:00,
2013-04-08 22:17:00,70.9,55.4,30.18,North,0,1.3,1.3,58,0.00,,---,0.00,VWS V14.01,2013-04-09 02:17:00,
2013-04-08 22:22:00,70.9,55.4,30.18,ESE,112,0.0,0.0,58,0.00,,---,0.00,VWS V14.01,2013-04-09 02:22:00,
2013-04-08 22:27:00,70.7,55.7,30.18,ESE,112,0.0,0.0,59,0.00,,---,0.00,VWS V14.01,2013-04-09 02:27:00,
2013-04-08 22:32:00,70.7,55.7,30.18,NE,45,0.0,0.0,59,0.00,,---,0.00,VWS V14.01,2013-04-09 02:32:00,
2013-04-08 22:37:00,70.5,56.0,30.18,NE,45,0.0,0.0,60,0.00,,---,0.00,VWS V14.01,2013-04-09 02:37:00,
2013-04-08 22:42:00,70.3,55.8,30.18,NE,45,0.0,0.0,60,0.00,,---,0.00,VWS V14.01,2013-04-09 02:42:00,
2013-04-08 22:47:00,70.2,56.1,30.18,NE,45,0.0,0.0,61,0.00,,---,0.00,VWS V14.01,2013-04-09 02:47:00,
2013-04-08 22:52:00,70.2,56.1,30.18,NE,45,0.0,0.0,61,0.00,,---,0.00,VWS V14.01,2013-04-09 02:52:00,
2013-04-08 22:58:00,70.2,56.1,30.18,SE,135,0.0,0.0,61,0.00,,---,0.00,VWS V14.01,2013-04-09 02:58:00,
2013-04-08 23:05:00,70.0,56.4,30.21,SE,135,0.0,0.0,62,0.00,,---,0.00,VWS V14.01,2013-04-09 03:05:00,
2013-04-08 23:10:00,70.0,56.4,30.21,NE,45,0.0,1.1,62,0.00,,---,0.00,VWS V14.01,2013-04-09 03:10:00,
2013-04-08 23:15:00,70.0,56.8,30.21,North,0,0.0,0.0,63,0.00,,---,0.00,VWS V14.01,2013-04-09 03:15:00,
2013-04-08 23:20:00,69.8,56.7,30.21,ESE,112,0.9,0.9,63,0.00,,---,0.00,VWS V14.01,2013-04-09 03:20:00,
2013-04-08 23:25:00,69.8,56.7,30.21,ESE,112,0.0,0.0,63,0.00,,---,0.00,VWS V14.01,2013-04-09 03:25:00,
2013-04-08 23:31:00,69.8,57.1,30.21,ENE,68,0.0,2.0,64,0.00,,---,0.00,VWS V14.01,2013-04-09 03:31:00,
2013-04-08 23:37:00,69.6,56.9,30.21,SW,225,0.0,2.0,64,0.00,,---,0.00,VWS V14.01,2013-04-09 03:37:00,
2013-04-08 23:42:00,69.8,57.1,30.21,ENE,68,1.3,3.1,64,0.00,,---,0.00,VWS V14.01,2013-04-09 03:42:00,
2013-04-08 23:47:00,69.8,56.7,30.21,East,90,0.0,2.2,63,0.00,,---,0.00,VWS V14.01,2013-04-09 03:47:00,
2013-04-08 23:52:00,69.8,56.7,30.21,ESE,112,3.6,3.6,63,0.00,,---,0.00,VWS V14.01,2013-04-09 03:52:00,
2013-04-08 23:57:00,69.8,56.2,30.21,SE,135,2.7,3.6,62,0.00,,---,0.00,VWS V14.01,2013-04-09 03:57:00,